Satellite-Ground Cal/Val Region Overpasses Predictions

Prediction of Satellite NPP Overpassing Cal/Val Region: PacNW

Region Location: (Latitude: 10.00, Longitude: 139.50) to (Latitude: 22.70, Longitude: 165.60).

Table of predicted overpasses for the next 14.0 days since TLE Epoch: 5/1/2013
Interval Starting Time Starting Location Ending Time Ending Location
1 05/01/2013 15:36:09 ( 22.69, 150.63) 05/01/2013 15:39:45 ( 10.01, 147.60)
2 05/02/2013 02:45:14 ( 10.04, 158.13) 05/02/2013 02:48:49 ( 22.66, 155.12)
3 05/02/2013 15:17:07 ( 22.69, 155.38) 05/02/2013 15:20:43 ( 10.01, 152.36)
4 05/03/2013 02:26:13 ( 10.04, 162.89) 05/03/2013 02:29:48 ( 22.66, 159.88)
5 05/03/2013 14:58:06 ( 22.69, 160.14) 05/03/2013 15:01:42 ( 10.01, 157.12)
6 05/04/2013 02:09:41 ( 18.79, 165.59) 05/04/2013 02:10:47 ( 22.66, 164.64)
7 05/04/2013 03:48:41 ( 10.04, 142.27) 05/04/2013 03:51:59 ( 21.66, 139.51)
8 05/04/2013 14:39:04 ( 22.69, 164.90) 05/04/2013 14:42:40 ( 10.01, 161.88)
9 05/04/2013 16:20:34 ( 22.69, 139.53) 05/04/2013 16:20:35 ( 22.63, 139.51)
10 05/05/2013 03:29:40 ( 10.04, 147.03) 05/05/2013 03:33:15 ( 22.66, 144.02)
11 05/05/2013 16:01:33 ( 22.69, 144.28) 05/05/2013 16:05:09 ( 10.01, 141.26)
12 05/06/2013 03:10:39 ( 10.04, 151.79) 05/06/2013 03:14:14 ( 22.66, 148.78)
13 05/06/2013 15:42:31 ( 22.69, 149.04) 05/06/2013 15:46:07 ( 10.01, 146.02)
14 05/07/2013 02:51:37 ( 10.04, 156.55) 05/07/2013 02:55:12 ( 22.66, 153.54)
15 05/07/2013 15:23:30 ( 22.69, 153.80) 05/07/2013 15:27:06 ( 10.01, 150.78)
16 05/08/2013 02:32:36 ( 10.04, 161.30) 05/08/2013 02:36:11 ( 22.66, 158.30)
17 05/08/2013 15:04:28 ( 22.68, 158.56) 05/08/2013 15:08:04 ( 10.00, 155.54)
18 05/09/2013 02:14:09 ( 12.10, 165.59) 05/09/2013 02:17:09 ( 22.66, 163.05)
19 05/09/2013 03:55:04 ( 10.05, 140.69) 05/09/2013 03:56:31 ( 15.16, 139.50)
20 05/09/2013 14:45:27 ( 22.68, 163.32) 05/09/2013 14:49:02 ( 10.06, 160.31)
21 05/10/2013 03:36:03 ( 10.05, 145.44) 05/10/2013 03:39:38 ( 22.67, 142.44)
22 05/10/2013 14:29:21 ( 12.35, 165.59) 05/10/2013 14:30:00 ( 10.05, 165.07)
23 05/10/2013 16:07:55 ( 22.67, 142.70) 05/10/2013 16:11:30 ( 10.05, 139.69)
24 05/11/2013 03:17:01 ( 10.06, 150.20) 05/11/2013 03:20:36 ( 22.68, 147.19)
25 05/11/2013 15:48:54 ( 22.67, 147.45) 05/11/2013 15:52:29 ( 10.04, 144.45)
26 05/12/2013 02:57:59 ( 10.00, 154.97) 05/12/2013 03:01:35 ( 22.68, 151.95)
27 05/12/2013 15:29:53 ( 22.66, 152.21) 05/12/2013 15:33:28 ( 10.04, 149.20)
28 05/13/2013 02:38:57 ( 10.01, 159.73) 05/13/2013 02:42:33 ( 22.69, 156.71)
29 05/13/2013 15:10:51 ( 22.65, 156.97) 05/13/2013 15:14:26 ( 10.03, 153.96)
30 05/14/2013 02:19:56 ( 10.02, 164.49) 05/14/2013 02:23:32 ( 22.69, 161.47)
31 05/14/2013 14:51:50 ( 22.64, 161.73) 05/14/2013 14:55:25 ( 10.02, 158.72)


NCC Satellite Cal/Val Overpasses Prediction Service
